This is the latest recevied weather packets stored in our database for station/object SA3PJN-WX. If no packets are shown the sender has not sent any weather packets the latest 10 day(s).
| Time | Temp. | Humidity | Pressure | Rain* | Wind** | Luminosity | Snow |
|---|---|---|---|---|---|---|---|
| 1778210655 | 3.89° C | 64% | 977.4 hPa | - | - | - | - |
| 1778210355 | 3.89° C | 65% | 977.4 hPa | - | - | - | - |
| 1778210054 | 3.33° C | 68% | 977.4 hPa | - | - | - | - |
| 1778209755 | 2.78° C | 72% | 977.4 hPa | - | - | - | - |
| 1778209454 | 1.67° C | 76% | 977.5 hPa | - | - | - | - |
| 1778209125 | 0.56° C | 80% | 977.3 hPa | - | - | - | - |
| 1778208824 | 0° C | 84% | 977.3 hPa | - | - | - | - |
| 1778208524 | -0.56° C | 87% | 977.2 hPa | - | - | - | - |
| 1778208225 | -0.56° C | 86% | 977.2 hPa | - | - | - | - |
| 1778207925 | -1.11° C | 87% | 977.2 hPa | - | - | - | - |
| 1778207594 | -1.11° C | 86% | 977.3 hPa | - | - | - | - |
| 1778207294 | -1.11° C | 85% | 977.3 hPa | - | - | - | - |
| 1778206994 | -0.56° C | 83% | 977.3 hPa | - | - | - | - |
| 1778206664 | -0.56° C | 81% | 977.3 hPa | - | - | - | - |
| 1778206334 | 0° C | 81% | 977.2 hPa | - | - | - | - |
| 1778206034 | 0.56° C | 80% | 977.2 hPa | - | - | - | - |
| 1778205704 | 0.56° C | 82% | 977.4 hPa | - | - | - | - |
| 1778205404 | 0.56° C | 81% | 977.3 hPa | - | - | - | - |
| 1778205104 | 0.56° C | 80% | 977.3 hPa | - | - | - | - |
| 1778204774 | 0.56° C | 78% | 977.2 hPa | - | - | - | - |
| 1778204474 | 0.56° C | 79% | 977.2 hPa | - | - | - | - |
| 1778204174 | 0° C | 76% | 977.2 hPa | - | - | - | - |
| 1778203844 | 0° C | 75% | 977.1 hPa | - | - | - | - |
| 1778203544 | 0° C | 76% | 977.1 hPa | - | - | - | - |
| 1778203214 | 0.56° C | 76% | 977 hPa | - | - | - | - |
* Rain since midnight (hover to see other rain measurements)
** Current wind speed in m/s (hover to see current wind gust speed)